Das Wetter in  D-61279 Heinzenberg / Taunus





Wetter Minimum- & Maximum-Werte im Mrz 2018

Standort: Heinzenberg / Taunus - Höhe 297 m         8 24' 1" Ost 50 21' 51" Nord
(   3-stündige Aktualisierung    letzte Aktualisierung um 04:37 am 31.03.2018  )


Messgrösse

Minimum

Maximum

Durchschnitt

Temperatur West /
Luftfeuchte West
Anklicken für Monats-Diagramm

-11,0 C

06:05
20.03.2018

35 %

14:18
01.03.2018

16,0 C

16:02
11.03.2018

92 %

08:48
12.03.2018

Temp

3,5 C

Feuchte

74 %

Temperatur Ost /
Luftfeuchte Ost
Anklicken für Monats-Diagramm

-10,9 C

06:05
20.03.2018

--

--
--

15,8 C

17:05
25.03.2018

--

--
--

3,6 C

--

Luftdruck Anklicken für Monats-Diagramm

988,5 hPa

16:12
06.03.2018

1029,7 hPa

07:36
21.03.2018

1004,4 hPa

Taupunkt

-15,6 C

02:03
01.03.2018

9,9 C

16:07
11.03.2018

-0,8 C

Windchill
( gefühlte Temperatur )

-24,8 C

01:23
01.03.2018

16,0 C

16:02
11.03.2018

1,5 C

Windgeschwindigkeit /
Windrichtung
Anklicken für Monats-Diagramm

---

49,0 km/h / W-SW

22:44
28.03.2018

6,0 km/h
W-SW

Helligkeit /
Sonnenschein
Anklicken für Monats-Diagramm
Anklicken für Monats-Diagramm

Sonnenschein:

103:10 Stunden

Max: 10:35 Std am
21.03.2018

100,0 klux

14:24
29.03.2018

23 klux

Solarstrahlung Anklicken für Monats-Diagramm

---

684 W/m

14:24
29.03.2018

168 W/m

Regenmenge
    Mrz 2018
Anklicken für Monats-Diagramm

Insgesamt 53,0 l/m

in 102:55 Stunden
an 24 Tagen

11,2 l/m

20:13
28.03.2018

Gesamtmenge

53,0 l/m

Regen-Tage
    Mrz 2018
Anklicken für Monats-Diagramm

>   0 mm/Tag

>   2 mm/Tag

>   5 mm/Tag

> 10 mm/Tag

> 20 mm/Tag

24 Tage     
8 Tage     
4 Tage     
  1 Tag     
0 Tage     

Eisige Tage Mrz 2018 / 2017

Tmin ≤ -10C     

  1 Tag

/

0 Tage

Eistage Mrz 2018 / 2017

Tmax <     0C     

3 Tage

/

0 Tage

Frosttage Mrz 2018 / 2017

Tmin ≤     0C     

15 Tage

/

9 Tage

Kalte Tage Mrz 2018 / 2017

Tmax <   10C     

16 Tage

/

7 Tage

Warme Tage Mrz 2018 / 2017

Tmax ≥   20C     

0 Tage

/

5 Tage

Sommertage Mrz 2018 / 2017

Tmax ≥   25C     

0 Tage

/

0 Tage

Heisse Tage Mrz 2018 / 2017

Tmax ≥   30C     

0 Tage

/

0 Tage


Monatsdiagramm Mrz 2018

Die Kurven zeigen den Durchschnittswert des jeweiligen Tages an


Wetter-Monatsübersicht Mrz 2018
Datum
  Temperatur
   Luftdruck
   Wind
  Regen
   Luftfeuchte
   Helligkeit

Sonnen-
schein


Temp.

Min.
Temp.

Max.
Temp.


Luftdruck

Min.
Luftdruck

Max.
Luftdruck

-Geschw.
Haupt-Richtg.

Max.
Wind

Menge /
Dauer


Feuchte

Min.
Feuchte

Max.
Feuchte


Helligkeit

Max.
Helligkeit

1.
Mrz
-4,9 C-9,2 C
06:53
1,9 C
16:03
1008,1 hPa1003,2 hPa
21:43
1015,2 hPa
00:58
6,1 km/h
O
33,4 km/h
14:48  
---
51 %35 %
14:18
61 %
08:13
30,7 klux62,0 klux
12:23
7:20 Std 
2.
Mrz
-4,6 C-8,0 C
07:04
-1,6 C
16:54
999,4 hPa997,6 hPa
16:54
1003,4 hPa
00:04
1,3 km/h
O-NO
18,8 km/h
14:49  
0,5 l/m
2:05 Stunden
57 %52 %
14:29
71 %
23:49
14,7 klux34,8 klux
12:29
--- 
3.
Mrz
-2,0 C-4,3 C
06:04
0,9 C
16:04
998,5 hPa997,3 hPa
16:24
1000,0 hPa
00:04
0,2 km/h
O-SO
13,0 km/h
17:09  
1,4 l/m
5:25 Stunden
77 %72 %
00:04
80 %
06:49
14,6 klux37,7 klux
14:44
10 Min 
4.
Mrz
3,3 C-0,8 C
00:15
10,5 C
14:50
997,7 hPa994,5 hPa
18:15
1000,6 hPa
00:55
3,7 km/h
O-SO
26,8 km/h
19:25  
0,3 l/m
1:20 Stunden
78 %65 %
15:00
85 %
09:10
22,3 klux62,2 klux
13:50
2:35 Std 
5.
Mrz
6,8 C0,8 C
23:57
13,6 C
15:31
995,2 hPa992,6 hPa
17:01
997,1 hPa
08:11
1,6 km/h
SW
15,1 km/h
12:06  
---
1:51 Stunden
71 %49 %
15:36
87 %
08:56
37,2 klux84,2 klux
14:01
8:25 Std 
6.
Mrz
3,5 C-3,0 C
07:32
13,5 C
16:12
991,4 hPa988,5 hPa
16:12
993,5 hPa
03:02
0,4 km/h
NW
7,8 km/h
15:42  
---
73 %51 %
15:37
86 %
08:57
27,9 klux49,1 klux
13:57
6:50 Std 
7.
Mrz
4,8 C0,5 C
07:58
9,5 C
12:53
995,0 hPa991,6 hPa
02:28
1000,1 hPa
23:44
9,2 km/h
W-SW
36,2 km/h
12:28  
0,8 l/m
6:15 Stunden
79 %67 %
12:53
89 %
09:53
18,4 klux95,9 klux
11:38
1:20 Std 
8.
Mrz
4,7 C1,8 C
05:34
9,2 C
14:49
1002,6 hPa998,4 hPa
18:09
1005,5 hPa
23:55
19,0 km/h
W-SW
46,4 km/h
18:59  
2,7 l/m
3:25 Stunden
78 %62 %
14:49
88 %
00:59
22,5 klux88,4 klux
13:09
2:45 Std 
9.
Mrz
4,3 C1,6 C
04:30
7,2 C
15:35
1007,1 hPa1004,9 hPa
23:06
1009,4 hPa
11:50
6,5 km/h
W-SW
27,6 km/h
01:05  
5,9 l/m
10:21 Stunden
86 %82 %
09:50
90 %
22:31
11,4 klux41,3 klux
13:50
--- 
10.
Mrz
9,8 C5,9 C
00:11
13,5 C
13:11
1002,6 hPa1001,3 hPa
22:27
1005,0 hPa
00:11
3,5 km/h
SW
31,4 km/h
13:21  
2,6 l/m
4:05 Stunden
84 %74 %
13:11
91 %
00:41
17,2 klux74,3 klux
13:06
45 Min 
11.
Mrz
10,7 C7,4 C
23:58
16,0 C
16:02
996,4 hPa993,3 hPa
22:48
1001,4 hPa
02:02
4,2 km/h
W-SW
31,1 km/h
11:42  
---
40 Minuten
82 %66 %
16:17
90 %
03:22
17,3 klux58,8 klux
09:37
1:15 Std 
12.
Mrz
9,0 C7,0 C
00:53
14,2 C
15:03
993,8 hPa992,2 hPa
05:13
997,5 hPa
23:44
9,5 km/h
W-SW
40,9 km/h
15:23  
4,7 l/m
6:09 Stunden
83 %64 %
15:08
92 %
08:48
18,0 klux68,9 klux
12:33
2:15 Std 
13.
Mrz
6,0 C3,5 C
23:10
8,1 C
01:04
1002,3 hPa997,4 hPa
01:04
1011,5 hPa
23:45
23,2 km/h
W-SW
43,4 km/h
14:39  
6,2 l/m
13:25 Stunden
86 %79 %
00:04
90 %
16:04
9,3 klux26,7 klux
13:34
--- 
14.
Mrz
5,9 C2,9 C
23:45
12,9 C
17:00
1010,2 hPa1006,3 hPa
22:55
1012,6 hPa
03:10
6,0 km/h
W
24,2 km/h
10:20  
---
76 %54 %
16:40
90 %
02:40
29,9 klux90,4 klux
13:35
4:15 Std 
15.
Mrz
5,9 C0,9 C
06:30
11,6 C
13:00
999,3 hPa995,0 hPa
14:51
1006,4 hPa
00:05
8,0 km/h
O-SO
41,9 km/h
14:25  
1,1 l/m
2:05 Stunden
70 %56 %
13:00
80 %
08:25
27,1 klux71,0 klux
12:05
4:55 Std 
16.
Mrz
4,6 C0,0 C
23:47
6,6 C
13:26
1000,8 hPa997,7 hPa
00:00
1005,7 hPa
23:17
0,3 km/h
O-SO
11,6 km/h
00:06  
4,4 l/m
9:15 Stunden
88 %79 %
00:00
91 %
12:06
5,8 klux18,9 klux
13:31
5 Min 
17.
Mrz
-3,2 C-4,6 C
19:52
-0,2 C
00:02
1004,5 hPa1003,9 hPa
04:47
1005,3 hPa
19:52
8,1 km/h
O-NO
33,2 km/h
17:07  
0,2 l/m
1:45 Stunden
81 %76 %
15:42
87 %
00:02
9,9 klux19,7 klux
12:17
--- 
18.
Mrz
-4,3 C-6,3 C
06:43
-1,0 C
12:53
1007,5 hPa1005,3 hPa
00:18
1010,5 hPa
21:23
8,0 km/h
O-NO
33,5 km/h
14:53  
7,0 l/m
5:10 Stunden
74 %65 %
13:28
84 %
07:53
22,5 klux76,9 klux
12:08
2:05 Std 
19.
Mrz
-2,1 C-6,1 C
07:09
4,3 C
15:24
1011,4 hPa1009,4 hPa
16:54
1014,8 hPa
23:55
1,8 km/h
O-NO
22,8 km/h
14:19  
---
61 %47 %
13:49
70 %
03:28
39,2 klux77,1 klux
13:29
9:05 Std 
20.
Mrz
-3,2 C-11,0 C
06:05
5,4 C
17:50
1018,3 hPa1014,8 hPa
00:00
1026,0 hPa
23:56
2,3 km/h
W-NW
19,2 km/h
13:20  
---
15 Minuten
68 %54 %
18:15
76 %
07:20
17,2 klux60,4 klux
10:05
1:35 Std 
21.
Mrz
-0,2 C-8,7 C
06:41
8,9 C
14:46
1027,3 hPa1025,3 hPa
15:56
1029,7 hPa
07:36
3,8 km/h
SO
22,0 km/h
16:51  
---
62 %39 %
13:21
82 %
08:41
43,3 klux80,7 klux
13:06
10:35 Std 
22.
Mrz
1,3 C-2,4 C
01:47
3,1 C
22:42
1017,1 hPa1011,5 hPa
23:47
1025,6 hPa
00:22
8,0 km/h
W-SW
25,6 km/h
10:17  
1,8 l/m
5:40 Stunden
82 %68 %
00:02
89 %
16:47
9,4 klux29,7 klux
10:32
--- 
23.
Mrz
4,7 C1,9 C
23:59
7,9 C
13:18
1007,2 hPa1003,2 hPa
22:34
1011,5 hPa
00:02
1,4 km/h
SW
15,3 km/h
16:18  
0,3 l/m
2:25 Stunden
87 %78 %
14:03
91 %
02:47
12,3 klux49,2 klux
12:23
--- 
24.
Mrz
4,9 C-0,7 C
23:55
12,0 C
16:24
1002,4 hPa1001,1 hPa
16:24
1004,8 hPa
23:55
3,1 km/h
O-SO
28,3 km/h
11:24  
---
35 Minuten
71 %48 %
16:34
91 %
08:59
34,4 klux97,1 klux
11:54
6:05 Std 
25.
Mrz
5,2 C-3,0 C
07:40
15,6 C
15:20
1006,2 hPa1004,8 hPa
00:00
1010,1 hPa
23:36
0,7 km/h
NW
15,6 km/h
16:10  
---
15 Minuten
66 %40 %
17:15
85 %
09:20
39,5 klux87,8 klux
14:05
8:40 Std 
26.
Mrz
6,3 C2,2 C
23:57
13,0 C
16:01
1013,1 hPa1009,0 hPa
00:01
1016,8 hPa
23:57
0,6 km/h
NW
20,9 km/h
16:06  
---
55 Minuten
68 %52 %
16:01
79 %
10:51
15,8 klux82,2 klux
15:41
1:25 Std 
27.
Mrz
4,3 C-1,4 C
06:57
10,4 C
14:32
1012,7 hPa1006,1 hPa
23:53
1017,0 hPa
02:07
4,1 km/h
SW
31,5 km/h
19:37  
2,0 l/m
5:24 Stunden
72 %56 %
12:22
83 %
09:22
22,0 klux78,5 klux
12:12
2:45 Std 
28.
Mrz
6,9 C4,7 C
00:03
8,5 C
14:48
1002,2 hPa996,4 hPa
20:48
1006,1 hPa
00:03
13,3 km/h
W-SW
49,0 km/h
22:44  
11,2 l/m
13:20 Stunden
87 %78 %
15:08
91 %
05:23
11,2 klux44,1 klux
13:23
--- 
29.
Mrz
5,6 C1,6 C
23:50
12,2 C
15:44
1005,4 hPa999,9 hPa
00:04
1007,6 hPa
23:50
15,5 km/h
W-SW
47,1 km/h
00:44  
---
50 Minuten
72 %46 %
15:49
86 %
00:04
35,7 klux100,0 klux
14:24
6:10 Std 
30.
Mrz
6,3 C-0,6 C
07:00
12,5 C
16:20
1002,2 hPa997,0 hPa
17:15
1007,7 hPa
02:50
7,0 km/h
O-SO
30,7 km/h
15:45  
---
69 %53 %
14:40
85 %
09:10
30 klux86 klux
12:55
4:30 Std 
31.
Mrz
8,9 C3,7 C
07:21
15,5 C
15:31
998,4 hPa996,5 hPa
15:26
1000,6 hPa
23:37
6,0 km/h
NW
29,1 km/h
14:21  
---
65 %41 %
15:26
84 %
08:16
40,4 klux94,3 klux
15:16
7:20 Std 



Mrz
2018

Temperatur

  

Luftdruck

  

Wind

  

Regen

  

Luftfeuchte

  

Helligkeit

Sonnen-
schein

Min

Max

Min

Max

Max

Max

Min

Max

Max

Max

3,5 C

-11,0 C

06:05 Uhr
20.03.2018

16,0 C

16:02 Uhr
11.03.2018

1004,4 hPa

988,5 hPa

16:12 Uhr
06.03.2018

1029,7 hPa

07:36 Uhr
21.03.2018

6,0 km/h

W-SW

49,0 km/h

22:44 Uhr
28.03.2018

11,2 l/m

13:20 Stunden
28.03.2018

74 %

35 %

14:18 Uhr
01.03.2018

92 %

08:48 Uhr
12.03.2018

22,8 klux

100,0 klux

14:24 Uhr
29.03.2018

10:35 Std

am
21.03.2018

Gesamt

Gesamt

53,0 l/m

24 Tage
102:55 h

103:10 Std


Wetter-Diagramme Mrz 2018     Heinzenberg / Taunus   
TemperaturLuftfeuchte
SolarstrahlungLuftdruck
HelligkeitSonnenschein
RegenmengeRegendauer
Wind-GeschwindigkeitWind-Richtung